Regional Weather Roundup
Issued by NWS Cleveland, OH

Home | Current Version | Previous Version | Text Only | Print | Product List | Glossary Off
Versions: 1 2 3 4 5 6 7 8 9 10 11 12 13 14 15 16 17 18 19 20 21 22 23 24 25 26 27 28 29 30 31 32 33 34 35 36 37 38 39 40 41 42 43 44 45 46 47 48 49 50

000
ASUS41 KCLE 300400
RWRCLE
OHIO REGIONAL WEATHER ROUNDUP
NATIONAL WEATHER SERVICE WILMINGTON, OH
1200 AM EDT THU MAR 30 2017

NOTE: "FAIR" INDICATES FEW OR NO CLOUDS BELOW 12,000 FEET WITH NO
SIGNIFICANT WEATHER AND/OR OBSTRUCTIONS TO VISIBILITY.

OHZ001>008-015>018-024>027-034-035-043-044-300500-
   NORTHWEST OHIO

CITY           SKY/WX    TMP DP  RH WIND       PRES   REMARKS
DEFIANCE       CLOUDY    46  33  60 E7        30.14S
FINDLAY        MOCLDY    48  30  49 NE12      30.11S
TOLEDO EXPRESS CLOUDY    46  32  58 E9        30.14F
TOLEDO EXEC    CLOUDY    46  34  62 NE10      30.16F
LIMA           CLOUDY    46  34  62 NE10      30.08R
$$

OHZ009>014-019>023-028>033-038-089-300500-
   NORTHEAST OHIO

CITY           SKY/WX    TMP DP  RH WIND       PRES   REMARKS
CLE-HOPKINS    CLOUDY    50  29  44 E8        30.17R
CLE-LAKEFRONT  MOCLDY    50  31  48 E9        30.15R
CUY CO. ARPT   NOT AVBL
LORAIN-ELYRIA  MOCLDY    46  30  53 E6        30.15R
ASHTABULA      FAIR      44  31  60 E6        30.14F
AKRON-CANTON   FAIR      44  30  57 E9        30.11F
WOOSTER        NOT AVBL
MANSFIELD      FAIR      43  31  62 E9        30.10R
YOUNGSTOWN     CLOUDY    45  29  53 E12       30.12F
$$

OHZ042-051>053-060>062-070>072-077>081-300500-
  SOUTHWEST OHIO

CITY           SKY/WX    TMP DP  RH WIND       PRES   REMARKS
CINC-COVINGTON FAIR      53  43  68 SE12      30.01F
CINC-LUNKEN    FAIR      53  45  74 E8        30.02F
HAMILTON       FAIR      53  44  71 E8        30.03S
DAYTON         NOT AVBL
WRIGHT-PAT AFB FAIR      53  36  53 E8        30.05R
DAYTON GENERAL FAIR      52  41  66 E3        30.03S
WILMINGTON     FAIR      48  42  80 E5        30.04F
$$

OHZ036-037-039>041-045>050-054>059-063>069-073>076-082>088-300500-
  CENTRAL AND SOUTHEAST OHIO

CITY           SKY/WX    TMP DP  RH WIND       PRES   REMARKS
COLUMBUS       FAIR      52  33  48 E12       30.05F
OSU AIRPORT    FAIR      47  36  65 E7        30.06F
BOLTON FIELD   NOT AVBL
RICKENBACK AFB NOT AVBL
NEWARK         FAIR      51  31  46 E9        30.06F
MARION         MOCLDY    45  33  63 E8        30.09F
LANCASTER      FAIR      52  35  52 E12       30.05F
ZANESVILLE     FAIR      50  33  52 SE9       30.07F
NEW PHILLY     FAIR      47  32  56 E3        30.11F
$$




USA.gov is the U.S. government's official web portal to all federal, state and local government web resources and services.